Location: Harwich
(41.7160°N, 69.9939°W)
Time: 08:47:40
(UTC+01:00)

A-11 Canister half - Pass Details

Date: 30 November 2023
Orbit: 1525 x 1682 km, 47.3° (Epoch: 12 November)

Event Time Altitude Azimuth Distance (km) Brightness Sun altitude
Exits shadow 09:45:43 28° 198° (SSW) 2,620 10.0 -33.1°
Drops below altitude 10° 09:50:52 10° 169° (S) 3,724 11.1 -32.1°
Sets 09:54:16 0° 160° (SSE) 4,687 11.8 -31.5°
